Location: Bamobli
(6.6379°N, 10.9396°W)
Time: 23:11:48
(UTC+00:00)

N. Korean satellite - Visible Passes

Search period start: 05 March 2021 00:00
Search period end: 15 March 2021 00:00
Orbit: 451 x 502 km, 97.2° (Epoch: 05 March)

Date Brightness Start Highest point End Pass type
(mag) Time Alt. Az. Time Alt. Az. Time Alt. Az.
05 Mar 7.4 06:16:10 10° NNW 06:19:22 30° WNW 06:22:37 10° SW visible
06 Mar 6.5 05:49:04 10° N 05:52:41 89° ESE 05:56:22 10° S visible
07 Mar 8.6 05:22:47 10° NE 05:25:59 29° E 05:29:14 10° SSE visible
08 Mar 10.1 04:58:04 10° E 04:59:17 11° E 05:00:29 10° ESE visible
08 Mar 8.0 06:29:40 10° NNW 06:32:19 19° WNW 06:34:58 10° SW visible
09 Mar 6.7 06:02:05 10° N 06:05:38 53° W 06:09:13 10° SSW visible
10 Mar 7.5 05:35:22 10° NNE 05:38:54 50° E 05:42:29 10° S visible
11 Mar 9.5 05:09:36 10° NE 05:12:11 18° E 05:14:46 10° SE visible
12 Mar 7.3 06:15:14 10° NNW 06:18:30 31° WNW 06:21:47 10° SW visible
13 Mar 6.6 05:48:07 10° NNE 05:51:47 87° E 05:55:28 10° S visible
14 Mar 8.7 05:21:48 10° NE 05:25:02 29° E 05:28:16 10° SSE visible
